Weather History for McAllen, TX

Change the Weather History Date:

Friday, February 22, 2013

  Actual Average Record
Temperature  
Mean Temperature 74 °F 66 °F  
Max Temperature 81 °F 77 °F 94 °F (1996)
Min Temperature 66 °F 56 °F 35 °F (1905)
Degree Days  
Heating Degree Days 0 3  
Month to date heating degree days 18 91  
Since 1 July heating degree days 287 518  
Cooling Degree Days 9 4  
Month to date cooling degree days 149 70  
Year to date cooling degree days 237 132  
Growing Degree Days 23 (Base 50)    
Moisture  
Dew Point 55 °F    
Average Humidity 60    
Maximum Humidity 73    
Minimum Humidity 47    
Precipitation  
Precipitation 0.00 in 0.03 in 1.13 in (1966)
Month to date precipitation 0.01 0.91  
Year to date precipitation 0.99 1.96  
Sea Level Pressure  
Sea Level Pressure 29.83 in    
Wind  
Wind Speed 9 mph (NNE)    
Max Wind Speed 15 mph    
Max Gust Speed 22 mph    
Visibility 10 miles    
Events      
T = Trace of Precipitation, MM = Missing Value Source: NWS Daily Summary

Daily Weather History Graph

Daily Weather History Graph

Search for Another Location

Airport:

Trip Planner

Search our weather history database for the weather conditions in past years. The results will help you decide how hot, cold, wet, or windy it might be!

Date:

Astronomy

Feb. 22, 2013 Rise Set
Actual Time 7:02 AM CST 6:30 PM CST
Civil Twilight 6:39 AM CST 6:53 PM CST
Nautical Twilight 6:12 AM CST 7:20 PM CST
Astronomical Twilight 5:45 AM CST 7:47 PM CST
Moon 3:53 PM CST 4:36 AM CST
Length of Visible Light 12h 14m
Length of Day
11h 28m
Waxing Gibbous, 90% of the Moon is Illuminated
Feb 22
Waxing Gibbous
Feb 25
Full
Mar 4
Last Quarter
Mar 11
New
Mar 19
First Quarter

Hourly Weather History & Observations

Time (CST) Temp. Heat Index Dew Point Humidity Pressure Visibility Wind Dir Wind Speed Gust Speed Precip Events Conditions
12:53 AM 72.0 °F - 52.0 °F 49% 29.81 in 10.0 mi NNE 8.1 mph - N/A   Overcast
1:53 AM 71.1 °F - 52.0 °F 51% 29.79 in 10.0 mi NNE 4.6 mph - N/A   Clear
2:53 AM 70.0 °F - 52.0 °F 53% 29.77 in 10.0 mi NNE 8.1 mph - N/A   Clear
3:48 AM 69.8 °F - 51.8 °F 53% 29.78 in 10.0 mi NNW 3.5 mph - N/A   Mostly Cloudy
3:53 AM 68.0 °F - 51.1 °F 55% 29.78 in 10.0 mi NNW 3.5 mph - N/A   Mostly Cloudy
4:53 AM 68.0 °F - 50.0 °F 52% 29.77 in 10.0 mi North 8.1 mph - N/A   Overcast
5:53 AM 68.0 °F - 52.0 °F 56% 29.79 in 10.0 mi NNE 6.9 mph - N/A   Overcast
6:53 AM 68.0 °F - 52.0 °F 56% 29.81 in 10.0 mi North 5.8 mph - N/A   Overcast
7:53 AM 68.0 °F - 53.1 °F 59% 29.84 in 10.0 mi NNW 6.9 mph - N/A   Overcast
8:53 AM 68.0 °F - 54.0 °F 61% 29.88 in 10.0 mi NNW 5.8 mph - N/A   Overcast
9:53 AM 68.0 °F - 55.0 °F 63% 29.89 in 10.0 mi NW 11.5 mph - N/A   Overcast
10:53 AM 70.0 °F - 55.9 °F 61% 29.89 in 10.0 mi North 10.4 mph - N/A   Overcast
11:53 AM 73.0 °F - 59.0 °F 61% 29.88 in 10.0 mi North 6.9 mph - N/A   Overcast
12:53 PM 75.9 °F - 60.1 °F 58% 29.85 in 10.0 mi North 5.8 mph - N/A   Overcast
1:25 PM 78.8 °F - 60.8 °F 54% 29.83 in 10.0 mi NNE 8.1 mph - N/A   Scattered Clouds
1:53 PM 80.1 °F 80.9 °F 60.1 °F 50% 29.81 in 10.0 mi NNE 8.1 mph - N/A   Clear
2:53 PM 79.0 °F - 60.1 °F 52% 29.79 in 10.0 mi ENE 12.7 mph 19.6 mph N/A   Mostly Cloudy
3:53 PM 79.0 °F - 57.9 °F 48% 29.79 in 10.0 mi NNE 10.4 mph 19.6 mph N/A   Partly Cloudy
4:53 PM 75.9 °F - 55.9 °F 50% 29.79 in 10.0 mi NE 11.5 mph 20.7 mph N/A   Clear
5:53 PM 73.9 °F - 55.0 °F 52% 29.81 in 10.0 mi NNE 11.5 mph - N/A   Clear
6:11 PM 73.4 °F - 55.4 °F 53% 29.82 in 10.0 mi NNE 11.5 mph - N/A   Mostly Cloudy
6:53 PM 71.1 °F - 55.9 °F 59% 29.83 in 10.0 mi NNE 11.5 mph - N/A   Overcast
7:32 PM 69.8 °F - 55.4 °F 60% 29.84 in 10.0 mi NE 12.7 mph - N/A   Scattered Clouds
7:40 PM 69.8 °F - 55.4 °F 60% 29.85 in 10.0 mi ENE 10.4 mph - N/A   Mostly Cloudy
7:53 PM 69.1 °F - 55.0 °F 61% 29.85 in 10.0 mi NE 10.4 mph - N/A   Overcast
8:53 PM 69.1 °F - 55.9 °F 63% 29.87 in 10.0 mi NE 9.2 mph - N/A   Overcast
9:53 PM 68.0 °F - 55.9 °F 65% 29.89 in 10.0 mi NE 9.2 mph - N/A   Overcast
10:53 PM 66.9 °F - 57.0 °F 70% 29.89 in 10.0 mi NNE 11.5 mph - N/A   Overcast
11:53 PM 66.0 °F - 57.0 °F 73% 29.90 in 10.0 mi North 13.8 mph - N/A   Overcast